Weather History for Wolf Creek Pass, CO

Change the Weather History Date:

Wednesday, December 19, 2012

  Actual Average (KALS) Record (KALS)
Temperature  
Mean Temperature 0 °F 17 °F  
Max Temperature 6 °F 34 °F 56 °F (1955)
Min Temperature -7 °F 1 °F -29 °F (1968)
Degree Days  
Heating Degree Days 66 48  
Month to date heating degree days 875  
Since 1 July heating degree days 3050  
Cooling Degree Days 0 0  
Month to date cooling degree days 0  
Year to date cooling degree days 51  
Moisture  
Dew Point -4 °F    
Average Humidity 85    
Maximum Humidity 92    
Minimum Humidity 77    
Precipitation  
Precipitation 0.47 in 0.02 in 0.09 in (2006)
Month to date precipitation 0.23  
Year to date precipitation 7.19  
Snow  
Snow 0.00 in 0.20 in 1.60 in (2006)
Month to date snowfall 2.9  
Since 1 July snowfall 8.7  
Snow Depth -    
Sea Level Pressure  
Sea Level Pressure 29.73 in    
Wind  
Wind Speed 15 mph (North)    
Max Wind Speed 24 mph    
Max Gust Speed 43 mph    
T = Trace of Precipitation, MM = Missing Value Source: NWS Daily Summary

Daily Weather History Graph

Daily Weather History Graph

Search for Another Location

Airport:

Trip Planner

Search our weather history database for the weather conditions in past years. The results will help you decide how hot, cold, wet, or windy it might be!

Date:

Astronomy

Dec. 19, 2012 Rise Set
Actual Time 7:17 AM MST 4:52 PM MST
Civil Twilight 6:47 AM MST 5:21 PM MST
Nautical Twilight 6:15 AM MST 5:54 PM MST
Astronomical Twilight 5:43 AM MST 6:25 PM MST
Moon 11:35 AM MST (12/19) No Moon Set
Length of Visible Light 10h 33m
Length of Day
9h 34m
Waxing Crescent, 45% of the Moon is Illuminated
Dec 19
Waxing Crescent
Dec 19
First Quarter
Dec 28
Full
Jan 4
Last Quarter
Jan 11
New

Hourly Weather History & Observations

Time (MST) Temp. Windchill Dew Point Humidity Pressure Visibility Wind Dir Wind Speed Gust Speed Precip Events Conditions
9:44 AM 6.8 °F -12.9 °F 3.2 °F 85% 29.46 in - SSW 19.6 mph 36.8 mph 0.03 in   Overcast
10:04 AM 5.0 °F -11.6 °F 3.2 °F 92% 29.46 in - SSW 12.7 mph 34.5 mph N/A   Overcast
10:22 AM 5.0 °F -13.6 °F 3.2 °F 92% 29.47 in - SW 16.1 mph 33.4 mph 0.04 in   Overcast
10:44 AM 6.8 °F -11.3 °F 5.0 °F 92% 29.48 in - SW 16.1 mph 26.5 mph 0.09 in   Overcast
11:04 AM 6.8 °F -12.4 °F 5.0 °F 92% 29.48 in - SW 18.4 mph 28.8 mph 0.02 in   Overcast
11:23 AM 6.8 °F -11.8 °F 3.2 °F 85% 29.47 in - SW 17.3 mph 25.3 mph 0.04 in   Overcast
11:44 AM 6.8 °F -12.9 °F 3.2 °F 85% 29.47 in - SSW 19.6 mph 28.8 mph 0.08 in   Overcast
12:04 PM 6.8 °F -12.4 °F 5.0 °F 92% 29.48 in - SW 18.4 mph 26.5 mph N/A   Overcast
12:24 PM 6.8 °F -12.4 °F 5.0 °F 92% 29.49 in - SW 18.4 mph 25.3 mph 0.05 in   Overcast
12:44 PM 6.8 °F -10.7 °F 3.2 °F 85% 29.51 in - SSW 15.0 mph 23.0 mph 0.08 in   Overcast
1:04 PM 6.8 °F -2.0 °F 3.2 °F 85% 29.54 in - West 4.6 mph - 0.01 in   Overcast
1:24 PM 6.8 °F -7.8 °F 3.2 °F 85% 29.55 in - WSW 10.4 mph 16.1 mph 0.02 in   Unknown
1:44 PM 6.8 °F -6.9 °F 3.2 °F 85% 29.57 in - West 9.2 mph 17.3 mph 0.05 in   Unknown
2:04 PM 5.0 °F - 1.4 °F 85% 29.59 in - Calm Calm - N/A   Unknown
2:23 PM 3.2 °F -11.3 °F -0.4 °F 85% 29.61 in - WNW 9.2 mph 16.1 mph 0.03 in   Unknown
2:44 PM 3.2 °F -10.3 °F -0.4 °F 85% 29.62 in - NNW 8.1 mph 18.4 mph 0.06 in   Unknown
3:03 PM 3.2 °F -6.2 °F -0.4 °F 85% 29.64 in - NNW 4.6 mph - N/A   Unknown
3:24 PM 3.2 °F -7.8 °F -0.4 °F 85% 29.66 in - NW 5.8 mph - 0.02 in   Unknown
3:44 PM 3.2 °F -6.2 °F -0.4 °F 85% 29.69 in - NNE 4.6 mph - 0.06 in   Unknown
4:04 PM 1.4 °F -13.5 °F -4.0 °F 78% 29.70 in - NE 9.2 mph - N/A   Unknown
4:24 PM -2.2 °F -23.5 °F -5.8 °F 85% 29.72 in - NE 17.3 mph 24.2 mph 0.02 in   Unknown
4:44 PM -4.0 °F -25.2 °F -7.6 °F 85% 29.74 in - NNE 16.1 mph 25.3 mph 0.02 in   Unknown
5:03 PM -4.0 °F -27.0 °F -7.6 °F 85% 29.76 in - NNE 19.6 mph 34.5 mph N/A   Unknown
5:24 PM -4.0 °F -29.1 °F -7.6 °F 85% 29.77 in - NNE 24.2 mph 32.2 mph N/A   Unknown
5:44 PM -4.0 °F -28.6 °F -7.6 °F 85% 29.78 in - NNE 23.0 mph 28.8 mph N/A   Unknown
6:04 PM -5.8 °F -29.9 °F -9.4 °F 84% 29.80 in - NNE 20.7 mph 27.6 mph N/A   Unknown
6:24 PM -5.8 °F -31.5 °F -9.4 °F 84% 29.82 in - NNE 24.2 mph 42.6 mph N/A   Unknown
6:44 PM -5.8 °F -26.8 °F -9.4 °F 84% 29.85 in - NNE 15.0 mph 21.9 mph N/A   Unknown
7:04 PM -5.8 °F -22.4 °F -9.4 °F 84% 29.86 in - NNE 9.2 mph - N/A   Unknown
7:24 PM -7.6 °F -27.5 °F -11.2 °F 84% 29.87 in - NNE 12.7 mph - N/A   Unknown
7:44 PM -7.6 °F -26.6 °F -13.0 °F 77% 29.89 in - NNE 11.5 mph - N/A   Unknown
8:04 PM -7.6 °F -29.8 °F -13.0 °F 77% 29.89 in - NE 16.1 mph 24.2 mph N/A   Unknown
8:24 PM -7.6 °F -29.8 °F -11.2 °F 84% 29.90 in - NE 16.1 mph 21.9 mph N/A   Unknown
8:44 PM -7.6 °F -26.6 °F -13.0 °F 77% 29.91 in - NE 11.5 mph - N/A   Unknown
9:04 PM -7.6 °F -26.6 °F -13.0 °F 77% 29.92 in - NNE 11.5 mph 19.6 mph N/A   Unknown
9:24 PM -5.8 °F -23.4 °F -9.4 °F 84% 29.94 in - NNE 10.4 mph 23.0 mph N/A   Unknown
9:44 PM -5.8 °F -26.8 °F -9.4 °F 84% 29.95 in - NE 15.0 mph 31.1 mph N/A   Unknown
10:04 PM -5.8 °F -28.8 °F -9.4 °F 84% 29.96 in - NE 18.4 mph 23.0 mph N/A   Unknown
10:24 PM -5.8 °F -29.4 °F -9.4 °F 84% 29.97 in - NE 19.6 mph 29.9 mph N/A   Unknown
10:44 PM -4.0 °F -27.6 °F -7.6 °F 85% 29.99 in - NE 20.7 mph 31.1 mph N/A   Unknown
11:04 PM -4.0 °F -28.6 °F -7.6 °F 85% 30.00 in - NE 23.0 mph 35.7 mph N/A   Unknown
11:24 PM -0.4 °F -21.2 °F -4.0 °F 85% 30.03 in - NNE 17.3 mph 33.4 mph N/A   Unknown
11:44 PM -0.4 °F -8.3 °F -5.8 °F 78% 30.05 in - WNW 3.5 mph - N/A   Unknown